Year,Month,Day,Hour,Minute,Value (Times are PST for temperature in C)
2015,06,07,10,20,24.30
2015,06,07,10,21,24.30
2015,06,07,10,22,24.30
2015,06,07,10,23,24.40
2015,06,07,10,24,24.40
2015,06,07,10,25,24.40
2015,06,07,10,26,24.50
2015,06,07,10,27,24.60
2015,06,07,10,28,24.60
2015,06,07,10,29,24.50
2015,06,07,10,30,24.40
2015,06,07,10,31,24.40
2015,06,07,10,32,24.40
2015,06,07,10,33,24.40
2015,06,07,10,34,24.50
2015,06,07,10,35,24.60
2015,06,07,10,36,24.60
2015,06,07,10,37,24.60
2015,06,07,10,38,24.60
2015,06,07,10,39,24.70
2015,06,07,10,40,24.70
2015,06,07,10,41,24.80
2015,06,07,10,42,24.90
2015,06,07,10,43,25.00
2015,06,07,10,44,25.10
2015,06,07,10,45,25.20
2015,06,07,10,46,25.30
2015,06,07,10,47,25.40
2015,06,07,10,48,25.50
2015,06,07,10,49,25.60
2015,06,07,10,50,25.60
2015,06,07,10,51,25.50
2015,06,07,10,52,25.50
2015,06,07,10,53,25.50
2015,06,07,10,54,25.50
2015,06,07,10,55,25.50
2015,06,07,10,56,25.40
2015,06,07,10,57,25.30
2015,06,07,10,58,25.20
2015,06,07,10,59,25.20
2015,06,07,11,00,25.20
2015,06,07,11,01,25.20
2015,06,07,11,02,25.20
2015,06,07,11,03,25.10
2015,06,07,11,04,25.10
2015,06,07,11,05,25.00
2015,06,07,11,06,24.90
2015,06,07,11,07,24.90
2015,06,07,11,08,24.80
2015,06,07,11,09,24.90
2015,06,07,11,10,24.90
2015,06,07,11,11,24.90
2015,06,07,11,12,24.90
2015,06,07,11,13,24.90
2015,06,07,11,14,25.00
2015,06,07,11,15,25.00
2015,06,07,11,16,25.00
2015,06,07,11,17,25.00
2015,06,07,11,18,25.10
2015,06,07,11,19,25.10
2015,06,07,11,20,25.20
2015,06,07,11,21,25.20
2015,06,07,11,22,25.20
2015,06,07,11,23,25.20
2015,06,07,11,24,25.20
2015,06,07,11,25,25.30
2015,06,07,11,26,25.30
2015,06,07,11,27,25.30
2015,06,07,11,28,25.30
2015,06,07,11,29,25.30
2015,06,07,11,30,25.40
2015,06,07,11,31,25.50
2015,06,07,11,32,25.50
2015,06,07,11,33,25.60
2015,06,07,11,34,25.50
2015,06,07,11,35,25.60
2015,06,07,11,36,25.60
2015,06,07,11,37,25.70
2015,06,07,11,38,25.70
2015,06,07,11,39,25.70
2015,06,07,11,40,25.70
2015,06,07,11,41,25.80
2015,06,07,11,42,25.80
2015,06,07,11,43,25.70
2015,06,07,11,44,25.70
2015,06,07,11,45,25.70
2015,06,07,11,46,25.70
2015,06,07,11,47,25.80
2015,06,07,11,48,25.70
2015,06,07,11,49,25.80
2015,06,07,11,50,25.90
2015,06,07,11,51,25.90
2015,06,07,11,52,26.00
2015,06,07,11,53,26.10
2015,06,07,11,54,26.10
2015,06,07,11,55,26.10
2015,06,07,11,56,26.20
2015,06,07,11,57,26.30
2015,06,07,11,58,26.30
2015,06,07,11,59,26.30
2015,06,07,12,00,26.40
2015,06,07,12,01,26.50
2015,06,07,12,02,26.60
2015,06,07,12,03,26.70
2015,06,07,12,04,26.80
2015,06,07,12,05,26.90
2015,06,07,12,06,26.90
2015,06,07,12,07,26.90
2015,06,07,12,08,26.90
2015,06,07,12,09,26.90
2015,06,07,12,10,26.90
2015,06,07,12,11,27.00
2015,06,07,12,12,27.10
2015,06,07,12,13,27.10
2015,06,07,12,14,27.30
2015,06,07,12,15,27.40
2015,06,07,12,16,27.50
2015,06,07,12,17,27.50
2015,06,07,12,18,27.60
2015,06,07,12,19,27.60
2015,06,07,12,20,27.70
2015,06,07,12,21,27.70
2015,06,07,12,22,27.80
2015,06,07,12,23,27.90
2015,06,07,12,24,27.90
2015,06,07,12,25,27.90
2015,06,07,12,26,27.90
2015,06,07,12,27,27.80
2015,06,07,12,28,27.80
2015,06,07,12,29,27.80
2015,06,07,12,30,27.80
2015,06,07,12,31,27.80
2015,06,07,12,32,27.80
2015,06,07,12,33,27.90
2015,06,07,12,34,27.90
2015,06,07,12,35,27.90
2015,06,07,12,36,28.00
2015,06,07,12,37,28.00
2015,06,07,12,38,28.10
2015,06,07,12,39,28.10
2015,06,07,12,40,28.20
2015,06,07,12,41,28.20
2015,06,07,12,42,28.10
2015,06,07,12,43,28.00
2015,06,07,12,44,27.90
2015,06,07,12,45,27.90
2015,06,07,12,46,27.90
2015,06,07,12,47,27.90
2015,06,07,12,48,28.00
2015,06,07,12,49,28.10
2015,06,07,12,50,28.10
2015,06,07,12,51,28.00
2015,06,07,12,52,28.00
2015,06,07,12,53,28.00
2015,06,07,12,54,27.90
2015,06,07,12,55,27.80
2015,06,07,12,56,27.70
2015,06,07,12,57,27.60
2015,06,07,12,58,27.60
2015,06,07,12,59,27.60
2015,06,07,13,00,27.70
2015,06,07,13,01,27.70
2015,06,07,13,02,27.70
2015,06,07,13,03,27.80
2015,06,07,13,04,27.80
2015,06,07,13,05,27.70
2015,06,07,13,06,27.70
2015,06,07,13,07,27.70
2015,06,07,13,08,27.60
2015,06,07,13,09,27.60
2015,06,07,13,10,27.70
2015,06,07,13,11,27.70
2015,06,07,13,12,27.70
2015,06,07,13,13,27.70
2015,06,07,13,14,27.70
2015,06,07,13,15,27.70
2015,06,07,13,16,27.70
2015,06,07,13,17,27.70
2015,06,07,13,18,27.80
2015,06,07,13,19,27.80
2015,06,07,13,20,27.90
2015,06,07,13,21,28.00
2015,06,07,13,22,28.10
2015,06,07,13,23,28.20
2015,06,07,13,24,28.40
2015,06,07,13,25,28.40
2015,06,07,13,26,28.40
2015,06,07,13,27,28.40
2015,06,07,13,28,28.30
2015,06,07,13,29,28.30
2015,06,07,13,30,28.30
2015,06,07,13,31,28.30
2015,06,07,13,32,28.20
2015,06,07,13,33,28.30
2015,06,07,13,34,28.40
2015,06,07,13,35,28.60
2015,06,07,13,36,28.60
2015,06,07,13,37,28.70
2015,06,07,13,38,28.70
2015,06,07,13,39,28.70
2015,06,07,13,40,28.80
2015,06,07,13,41,28.80
2015,06,07,13,42,28.70
2015,06,07,13,43,28.70
2015,06,07,13,44,28.70
2015,06,07,13,45,28.80
2015,06,07,13,46,28.80
2015,06,07,13,47,28.80
2015,06,07,13,48,28.80
2015,06,07,13,49,28.80
2015,06,07,13,50,28.80
2015,06,07,13,51,28.80
2015,06,07,13,52,28.90
2015,06,07,13,53,29.00
2015,06,07,13,54,29.10
2015,06,07,13,55,29.20
2015,06,07,13,56,29.30
2015,06,07,13,57,29.40
2015,06,07,13,58,29.40
2015,06,07,13,59,29.40
2015,06,07,14,00,29.30
2015,06,07,14,01,29.30
2015,06,07,14,02,29.20
2015,06,07,14,03,29.20
2015,06,07,14,04,29.20
2015,06,07,14,05,29.20
2015,06,07,14,06,29.10
2015,06,07,14,07,29.00
2015,06,07,14,08,29.00
2015,06,07,14,09,29.00
2015,06,07,14,10,29.10
2015,06,07,14,11,29.10
2015,06,07,14,12,29.20
2015,06,07,14,13,29.20
2015,06,07,14,14,29.30
2015,06,07,14,15,29.20
2015,06,07,14,16,29.20
2015,06,07,14,17,29.30
2015,06,07,14,18,29.30
2015,06,07,14,19,29.40
2015,06,07,14,20,29.40
2015,06,07,14,21,29.50
2015,06,07,14,22,29.50
2015,06,07,14,23,29.60
2015,06,07,14,24,29.70
2015,06,07,14,25,29.70
2015,06,07,14,26,29.70
2015,06,07,14,27,29.80
2015,06,07,14,28,29.80
2015,06,07,14,29,29.80
2015,06,07,14,30,29.70
2015,06,07,14,31,29.60
2015,06,07,14,32,29.60
2015,06,07,14,33,29.70
2015,06,07,14,34,29.70
2015,06,07,14,35,29.80
2015,06,07,14,36,29.80
2015,06,07,14,37,29.90
2015,06,07,14,38,29.90
2015,06,07,14,39,29.90
2015,06,07,14,40,30.00
2015,06,07,14,41,30.00
2015,06,07,14,42,30.10
2015,06,07,14,43,30.10
2015,06,07,14,44,30.20
2015,06,07,14,45,30.20
2015,06,07,14,46,30.20
2015,06,07,14,47,30.20
2015,06,07,14,48,30.10
2015,06,07,14,49,30.20
2015,06,07,14,50,30.20
2015,06,07,14,51,30.30
2015,06,07,14,52,30.30
2015,06,07,14,53,30.30
2015,06,07,14,54,30.20
2015,06,07,14,55,30.20
2015,06,07,14,56,30.20
2015,06,07,14,57,30.10
2015,06,07,14,58,30.10
2015,06,07,14,59,30.10
2015,06,07,15,00,30.10
2015,06,07,15,01,30.10
2015,06,07,15,02,30.20
2015,06,07,15,03,30.30
2015,06,07,15,04,30.30
2015,06,07,15,05,30.30
2015,06,07,15,06,30.20
2015,06,07,15,07,30.20
2015,06,07,15,08,30.20
2015,06,07,15,09,30.20
2015,06,07,15,10,30.20
2015,06,07,15,11,30.20
2015,06,07,15,12,30.10
2015,06,07,15,13,30.10
2015,06,07,15,14,30.10
2015,06,07,15,15,30.10
2015,06,07,15,16,30.10
2015,06,07,15,17,30.20
2015,06,07,15,18,30.20
2015,06,07,15,19,30.10
2015,06,07,15,20,30.10
2015,06,07,15,21,30.10
2015,06,07,15,22,30.10
2015,06,07,15,23,30.10
2015,06,07,15,24,30.20
2015,06,07,15,25,30.20
2015,06,07,15,26,30.30
2015,06,07,15,27,30.40
2015,06,07,15,28,30.50
2015,06,07,15,29,30.60
2015,06,07,15,30,30.80
2015,06,07,15,31,30.80
2015,06,07,15,32,30.90
2015,06,07,15,33,30.90
2015,06,07,15,34,30.90
2015,06,07,15,35,30.90
2015,06,07,15,36,30.90
2015,06,07,15,37,30.90
2015,06,07,15,38,31.00
2015,06,07,15,39,31.10
2015,06,07,15,40,31.20
2015,06,07,15,41,31.20
2015,06,07,15,42,31.20
2015,06,07,15,43,31.30
2015,06,07,15,44,31.30
2015,06,07,15,45,31.30
2015,06,07,15,46,31.30
2015,06,07,15,47,31.30
2015,06,07,15,48,31.20
2015,06,07,15,49,31.20
2015,06,07,15,50,31.20
2015,06,07,15,51,31.10
2015,06,07,15,52,31.10
2015,06,07,15,53,31.00
2015,06,07,15,54,30.80
2015,06,07,15,55,30.60
2015,06,07,15,56,30.60
2015,06,07,15,57,30.60
2015,06,07,15,58,30.60
2015,06,07,15,59,30.60
2015,06,07,16,00,30.70
2015,06,07,16,01,30.60
2015,06,07,16,02,30.70
2015,06,07,16,03,30.70
2015,06,07,16,04,30.70
2015,06,07,16,05,30.70
2015,06,07,16,06,30.70
2015,06,07,16,07,30.60
2015,06,07,16,08,30.50
2015,06,07,16,09,30.50
2015,06,07,16,10,30.40
2015,06,07,16,11,30.40
2015,06,07,16,12,30.40
2015,06,07,16,13,30.40
2015,06,07,16,14,30.40
2015,06,07,16,15,30.40
2015,06,07,16,16,30.40
2015,06,07,16,17,30.40
2015,06,07,16,18,30.50
2015,06,07,16,19,30.60
2015,06,07,16,20,30.60
2015,06,07,16,21,30.70
2015,06,07,16,22,30.80
2015,06,07,16,23,30.60
2015,06,07,16,24,30.60
2015,06,07,16,25,30.50
2015,06,07,16,26,30.40
2015,06,07,16,27,30.40
2015,06,07,16,28,30.50
2015,06,07,16,29,30.50
2015,06,07,16,30,30.50
2015,06,07,16,31,30.50
2015,06,07,16,32,30.50
2015,06,07,16,33,30.50
2015,06,07,16,34,30.50
2015,06,07,16,35,30.60
2015,06,07,16,36,30.60
2015,06,07,16,37,30.60
2015,06,07,16,38,30.60
2015,06,07,16,39,30.70
2015,06,07,16,40,30.70
2015,06,07,16,41,30.80
2015,06,07,16,42,30.80
2015,06,07,16,43,30.80
2015,06,07,16,44,30.80
2015,06,07,16,45,30.80
2015,06,07,16,46,30.80
2015,06,07,16,47,30.80
2015,06,07,16,48,30.70
2015,06,07,16,49,30.60
2015,06,07,16,50,30.60
2015,06,07,16,51,30.60
2015,06,07,16,52,30.60
2015,06,07,16,53,30.60
2015,06,07,16,54,30.70
2015,06,07,16,55,30.70
2015,06,07,16,56,30.70
2015,06,07,16,57,30.70
2015,06,07,16,58,30.70
2015,06,07,16,59,30.70
2015,06,07,17,00,30.70
2015,06,07,17,01,30.60
2015,06,07,17,02,30.60
2015,06,07,17,03,30.70
2015,06,07,17,04,30.60
2015,06,07,17,05,30.60
2015,06,07,17,06,30.60
2015,06,07,17,07,30.70
2015,06,07,17,08,30.70
2015,06,07,17,09,30.70
2015,06,07,17,10,30.70
2015,06,07,17,11,30.60
2015,06,07,17,12,30.60
2015,06,07,17,13,30.70
2015,06,07,17,14,30.70
2015,06,07,17,15,30.70
2015,06,07,17,16,30.80
2015,06,07,17,17,30.80
2015,06,07,17,18,30.90
2015,06,07,17,19,30.90
2015,06,07,17,20,30.90
2015,06,07,17,21,30.80
2015,06,07,17,22,30.90
2015,06,07,17,23,30.80
2015,06,07,17,24,30.80
2015,06,07,17,25,30.90
2015,06,07,17,26,30.90
2015,06,07,17,27,30.90
2015,06,07,17,28,30.80
2015,06,07,17,29,30.70
2015,06,07,17,30,30.70
2015,06,07,17,31,30.70
2015,06,07,17,32,30.70
2015,06,07,17,33,30.70
2015,06,07,17,34,30.80
2015,06,07,17,35,30.90
2015,06,07,17,36,30.90
2015,06,07,17,37,31.00
2015,06,07,17,38,31.10
2015,06,07,17,39,31.20
2015,06,07,17,40,31.30
2015,06,07,17,41,31.40
2015,06,07,17,42,31.40
2015,06,07,17,43,31.40
2015,06,07,17,44,31.40
2015,06,07,17,45,31.40
2015,06,07,17,46,31.40
2015,06,07,17,47,31.40
2015,06,07,17,48,31.40
2015,06,07,17,49,31.30
2015,06,07,17,50,31.30
2015,06,07,17,51,31.30
2015,06,07,17,52,31.30
2015,06,07,17,53,31.30
2015,06,07,17,54,31.20
2015,06,07,17,55,31.20
2015,06,07,17,56,31.10
2015,06,07,17,57,31.10
2015,06,07,17,58,31.10
2015,06,07,17,59,31.20
2015,06,07,18,00,31.30
2015,06,07,18,01,31.30
2015,06,07,18,02,31.40
2015,06,07,18,03,31.50
2015,06,07,18,04,31.60
2015,06,07,18,05,31.70
2015,06,07,18,06,31.70
2015,06,07,18,07,31.70
2015,06,07,18,08,31.80
2015,06,07,18,09,31.70
2015,06,07,18,10,31.70
2015,06,07,18,11,31.70
2015,06,07,18,12,31.80
2015,06,07,18,13,31.80
2015,06,07,18,14,31.80
2015,06,07,18,15,31.70
2015,06,07,18,16,31.70
2015,06,07,18,17,31.70
2015,06,07,18,18,31.70
2015,06,07,18,19,31.70
2015,06,07,18,20,31.60
2015,06,07,18,21,31.60
2015,06,07,18,22,31.70
2015,06,07,18,23,31.70
2015,06,07,18,24,31.60
2015,06,07,18,25,31.50
2015,06,07,18,26,31.40
2015,06,07,18,27,31.30
2015,06,07,18,28,31.30
2015,06,07,18,29,31.30
2015,06,07,18,30,31.30
2015,06,07,18,31,31.20
2015,06,07,18,32,31.20
2015,06,07,18,33,31.10
2015,06,07,18,34,31.10
2015,06,07,18,35,31.10
2015,06,07,18,36,31.10
2015,06,07,18,37,30.90
2015,06,07,18,38,30.90
2015,06,07,18,39,30.80
2015,06,07,18,40,30.80
2015,06,07,18,41,30.70
2015,06,07,18,42,30.70
2015,06,07,18,43,30.70
2015,06,07,18,44,30.60
2015,06,07,18,45,30.60
2015,06,07,18,46,30.50
2015,06,07,18,47,30.50
2015,06,07,18,48,30.50
2015,06,07,18,49,30.50
2015,06,07,18,50,30.50
2015,06,07,18,51,30.50
2015,06,07,18,52,30.50
2015,06,07,18,53,30.40
2015,06,07,18,54,30.30
2015,06,07,18,55,30.30
2015,06,07,18,56,30.30
2015,06,07,18,57,30.20
2015,06,07,18,58,30.10
2015,06,07,18,59,30.10
2015,06,07,19,00,30.00
2015,06,07,19,01,29.90
2015,06,07,19,02,29.80
2015,06,07,19,03,29.70
2015,06,07,19,04,29.70
2015,06,07,19,05,29.60
2015,06,07,19,06,29.60
2015,06,07,19,07,29.50
2015,06,07,19,08,29.40
2015,06,07,19,09,29.30
2015,06,07,19,10,29.30
2015,06,07,19,11,29.20
2015,06,07,19,12,29.20
2015,06,07,19,13,29.10
2015,06,07,19,14,29.10
2015,06,07,19,15,29.10
2015,06,07,19,16,29.00
2015,06,07,19,17,29.00
2015,06,07,19,18,28.90
2015,06,07,19,19,28.80
2015,06,07,19,20,28.80
2015,06,07,19,21,28.70
2015,06,07,19,22,28.60
2015,06,07,19,23,28.60
2015,06,07,19,24,28.50
2015,06,07,19,25,28.50
2015,06,07,19,26,28.40
2015,06,07,19,27,28.40
2015,06,07,19,28,28.40
2015,06,07,19,29,28.30
2015,06,07,19,30,28.30
2015,06,07,19,31,28.20
2015,06,07,19,32,28.20
2015,06,07,19,33,28.20
2015,06,07,19,34,28.10
2015,06,07,19,35,28.10
2015,06,07,19,36,28.10
2015,06,07,19,37,28.10
2015,06,07,19,38,28.10
2015,06,07,19,39,28.00
2015,06,07,19,40,28.00
2015,06,07,19,41,28.00
2015,06,07,19,42,28.00
2015,06,07,19,43,27.90
2015,06,07,19,44,27.90
2015,06,07,19,45,27.90
2015,06,07,19,46,27.80
2015,06,07,19,47,27.80
2015,06,07,19,48,27.80
2015,06,07,19,49,27.80
2015,06,07,19,50,27.70
2015,06,07,19,51,27.70
2015,06,07,19,52,27.70
2015,06,07,19,53,27.60
2015,06,07,19,54,27.60
2015,06,07,19,55,27.50
2015,06,07,19,56,27.50
2015,06,07,19,57,27.40
2015,06,07,19,58,27.40
2015,06,07,19,59,27.30
2015,06,07,20,00,27.20
2015,06,07,20,01,27.20
2015,06,07,20,02,27.10
2015,06,07,20,03,27.10
2015,06,07,20,04,27.00
2015,06,07,20,05,26.90
2015,06,07,20,06,26.90
2015,06,07,20,07,26.90
2015,06,07,20,08,26.80
2015,06,07,20,09,26.80
2015,06,07,20,10,26.70
2015,06,07,20,11,26.70
2015,06,07,20,12,26.60
2015,06,07,20,13,26.60
2015,06,07,20,14,26.50
2015,06,07,20,15,26.50
2015,06,07,20,16,26.40
2015,06,07,20,17,26.30
2015,06,07,20,18,26.30
2015,06,07,20,19,26.20
2015,06,07,20,20,26.20
2015,06,07,20,21,26.10
2015,06,07,20,22,26.10
2015,06,07,20,23,26.00
2015,06,07,20,24,26.00
2015,06,07,20,25,25.90
2015,06,07,20,26,25.80
2015,06,07,20,27,25.70
2015,06,07,20,28,25.70
2015,06,07,20,29,25.60
2015,06,07,20,30,25.60
2015,06,07,20,31,25.60
2015,06,07,20,32,25.60
2015,06,07,20,33,25.60
2015,06,07,20,34,25.60
2015,06,07,20,35,25.60
2015,06,07,20,36,25.60
2015,06,07,20,37,25.60
2015,06,07,20,38,25.60
2015,06,07,20,39,25.60
